Wind_Speed
16 15 16 22 24 23 20 19 19 19 20 20 20 20 19 18 16 17 18 20 28 30 27 27 30 29 26 24 24 26 27 25 24 22 19 18 16 16 16 16 14 11 11 12 10 10 12 14 16 18 19 20 22 22 20 19 18 17 15 14 12 11 10 11 11 12 13 13 13 13 14 14 13 13 14 16 17 18 18 17 16 16 17 17 17 17
18 17 20 24 25 23 21 20 20 21 22 22 22 22 20 20 19 17 18 21 28 32 29 27 28 26 25 26 26 27 27 26 25 25 24 22 20 18 18 19 18 15 15 14 11 10 12 14 17 18 18 20 21 20 19 18 18 17 16 14 12 11 11 11 11 12 13 13 13 14 14 14 13 13 14 16 17 18 19 18 17 17 17 18 18 18
19 19 24 25 23 23 21 21 22 22 23 23 23 24 21 20 21 18 17 22 27 30 30 29 29 26 25 26 28 28 27 25 25 26 27 26 24 23 21 21 21 19 17 16 13 11 13 14 17 18 18 19 20 19 18 18 18 18 17 14 12 11 10 11 12 13 13 13 13 14 14 14 14 14 14 16 17 18 19 19 18 17 17 18 18 19
18 22 26 24 23 23 22 22 23 22 23 24 24 24 22 22 25 20 17 21 25 28 30 29 29 27 25 25 26 26 24 23 24 26 27 28 27 27 26 24 23 22 19 17 14 13 14 15 16 18 18 19 20 19 18 19 18 17 17 15 12 11 10 10 11 12 13 14 13 14 14 15 15 14 14 15 16 18 19 19 19 18 18 18 19 19
19 25 26 24 25 25 24 23 23 24 24 25 24 24 25 25 27 26 21 21 22 24 29 33 31 26 23 23 23 23 22 21 23 25 25 26 27 27 27 25 24 23 21 18 17 15 14 14 15 17 18 18 19 19 18 19 18 16 17 16 14 11 10 10 11 12 13 13 13 13 14 15 15 14 13 14 14 16 18 19 19 19 19 19 19 19
21 26 26 25 26 27 26 23 23 26 27 27 25 24 28 28 28 28 26 26 24 21 25 32 33 25 19 20 21 21 20 21 23 25 24 24 24 24 23 23 24 23 21 20 18 16 16 16 16 17 18 17 18 17 17 18 17 16 16 16 15 13 11 10 10 11 12 13 13 13 13 13 14 14 13 13 13 14 15 17 18 18 18 18 18 18
24 26 27 27 27 27 27 24 22 27 31 31 26 24 29 31 30 30 29 30 30 26 25 26 28 25 18 15 17 19 19 19 21 23 22 20 20 21 21 21 23 23 21 20 18 17 19 18 15 15 17 19 19 17 17 17 17 17 16 15 15 15 14 12 10 11 11 12 12 13 12 11 12 12 12 12 12 12 13 14 15 16 17 17 17 17
27 27 28 28 28 27 27 26 25 29 33 33 28 27 30 30 31 31 30 31 32 32 30 25 25 27 22 16 15 18 18 17 18 20 20 19 18 19 20 21 22 22 22 21 18 18 19 19 17 17 19 21 21 19 18 17 18 19 18 16 15 15 16 15 13 12 12 12 12 12 12 10 10 11 11 11 11 11 12 13 13 14 15 17 17 17
29 29 29 29 28 27 27 27 27 29 31 31 29 29 30 30 31 30 31 31 31 33 32 26 25 29 28 23 20 18 17 18 18 18 19 21 20 18 19 21 22 23 23 21 18 17 19 21 22 22 22 22 22 23 22 21 23 22 20 19 17 15 15 16 16 14 13 12 12 12 12 11 9 10 11 11 11 10 11 12 12 12 13 15 16 17
29 30 29 29 29 28 28 28 27 28 29 29 30 30 29 30 30 30 31 31 31 34 32 27 28 31 31 29 25 20 19 19 19 19 19 20 20 19 19 21 23 24 24 21 18 18 20 24 27 26 25 25 25 26 25 24 26 25 22 20 19 18 17 17 17 17 16 15 13 13 12 12 10 10 11 11 12 11 11 11 12 11 11 12 14 16
29 29 29 29 29 29 29 28 28 28 29 29 31 31 30 31 31 32 32 31 33 35 32 28 30 33 33 32 29 24 22 22 21 21 20 20 19 19 20 22 23 24 25 24 23 21 22 25 28 29 29 27 26 26 26 25 26 24 21 21 21 21 21 20 20 21 21 20 17 15 13 13 13 12 11 12 12 12 11 10 10 10 10 10 12 15
31 30 30 30 30 31 30 29 28 28 29 29 30 31 32 32 33 34 33 33 36 36 34 33 34 34 35 34 30 27 26 25 24 22 20 19 18 17 19 21 24 26 27 28 27 27 26 26 27 29 30 29 27 28 27 26 26 24 22 22 23 23 24 25 24 24 23 23 21 18 15 14 14 14 13 12 12 12 12 11 10 9 9 10 12 14
34 32 31 31 31 32 31 30 30 30 29 30 31 32 32 34 35 36 36 37 39 39 37 37 38 37 36 35 31 28 28 28 27 24 21 19 18 17 18 19 23 26 29 31 31 30 29 27 27 28 30 32 31 31 30 28 27 27 26 26 24 25 28 29 28 26 25 24 24 22 19 16 15 15 14 13 13 12 12 12 11 10 9 10 11 14
37 35 33 31 32 33 32 30 31 30 30 30 31 32 33 35 37 38 39 40 41 41 40 40 41 41 39 36 34 31 29 29 28 26 24 22 21 20 19 19 20 24 28 30 31 32 32 30 28 28 31 34 34 33 32 29 29 30 31 29 27 28 28 27 28 29 27 26 26 26 24 21 18 17 17 16 14 13 12 12 12 12 11 11 11 13
41 39 36 34 33 34 33 32 31 31 29 30 32 33 33 34 37 40 41 43 44 44 44 43 44 45 43 38 36 34 32 30 29 28 27 26 24 23 22 20 20 21 24 26 27 27 29 29 27 28 32 35 34 33 31 31 32 34 34 32 29 27 24 22 22 25 27 28 28 29 28 26 22 20 19 18 17 15 13 12 12 12 12 12 12 12
43 42 40 38 37 37 37 36 35 33 32 32 32 33 35 35 37 40 41 43 45 46 47 46 46 48 47 42 39 37 35 33 31 30 29 29 28 26 24 24 23 23 24 25 26 26 26 27 27 30 33 34 33 32 31 32 34 35 35 33 29 27 26 23 21 20 22 26 29 31 31 30 27 24 22 21 20 18 16 14 12 11 12 12 12 12
45 43 42 41 40 40 40 40 39 38 37 36 34 34 35 37 38 40 42 43 44 47 48 48 48 48 48 47 44 40 38 36 35 33 32 32 31 29 27 27 27 27 27 28 28 28 28 28 28 30 31 32 32 32 33 34 34 35 36 34 30 28 28 26 24 23 22 23 28 32 33 32 31 29 26 24 22 20 18 16 14 12 11 11 12 12
45 44 42 42 41 40 41 41 41 42 42 40 39 37 37 38 39 40 43 44 45 48 50 49 49 49 49 50 48 45 42 39 37 36 35 35 34 31 29 29 30 30 30 30 30 30 30 30 30 30 31 31 32 34 36 35 34 35 36 34 31 31 29 27 27 26 24 23 24 29 33 35 35 33 30 26 23 21 19 17 16 15 13 11 11 11
45 45 44 43 42 41 41 42 42 43 43 42 42 41 40 40 42 42 44 47 47 50 52 51 50 50 50 50 50 48 45 43 41 39 39 39 38 37 35 33 32 32 33 32 30 29 30 31 32 32 34 34 34 35 36 36 36 36 36 34 32 31 30 29 28 26 25 24 23 26 32 35 34 29 26 24 22 20 19 18 17 16 15 12 11 10
45 46 46 46 45 44 44 44 45 45 44 43 43 42 42 42 44 45 46 49 50 51 53 53 52 50 50 51 52 51 48 45 44 43 42 43 42 42 40 38 37 36 36 35 33 31 31 32 33 34 37 37 37 38 37 37 37 36 34 33 32 32 31 30 30 27 26 26 24 25 29 31 29 26 24 23 21 19 18 17 17 17 16 14 12 11
45 46 47 46 46 46 47 47 47 47 47 46 45 44 44 44 45 46 48 49 52 54 55 56 55 51 50 51 53 53 51 48 46 45 45 46 45 45 44 43 41 39 39 39 38 37 36 35 34 34 36 37 38 40 39 37 37 36 36 35 33 32 32 31 32 31 30 30 28 24 23 26 28 28 27 26 22 20 19 18 18 17 16 15 13 12
44 46 47 46 46 46 47 47 48 48 49 49 49 49 49 48 47 48 48 48 50 53 54 57 58 52 49 51 53 53 53 52 50 49 48 48 48 47 48 48 45 43 41 40 41 41 40 38 37 35 36 37 39 42 43 42 40 39 39 38 36 34 33 32 33 33 32 32 28 21 18 21 24 25 26 27 25 22 21 21 20 19 18 17 15 14
43 45 47 47 47 47 47 48 48 48 49 49 50 52 52 52 52 52 52 51 51 52 52 55 57 53 48 49 51 52 53 54 54 53 51 50 49 49 50 51 49 47 44 42 41 42 43 43 41 39 38 37 39 43 46 46 45 44 43 41 39 36 34 34 34 34 33 29 24 19 18 18 20 21 21 23 25 25 24 23 22 22 21 19 17 15
42 45 48 48 47 47 48 49 48 49 50 50 52 53 53 54 54 54 56 56 54 54 53 55 58 54 47 47 49 50 52 52 54 55 54 52 51 50 51 52 52 50 48 45 44 44 45 44 44 43 41 41 41 42 46 49 46 41 38 35 31 30 31 32 35 36 34 28 22 18 17 17 17 19 17 17 20 22 24 24 24 24 23 21 20 19
43 46 49 50 49 49 49 49 49 50 50 51 52 53 54 55 55 56 57 57 57 58 57 58 60 56 49 47 47 47 48 50 51 53 55 55 53 51 51 52 53 53 51 48 45 48 49 46 45 46 45 44 43 42 46 49 41 31 27 26 25 27 29 30 32 35 35 29 23 19 18 17 17 19 19 18 18 19 20 22 23 24 25 24 23 22
47 49 50 51 52 53 52 52 53 53 52 52 53 54 55 55 56 57 58 59 60 59 58 60 61 57 52 51 48 46 46 47 47 49 52 55 54 53 52 52 53 55 55 52 48 49 51 49 49 50 48 45 45 45 47 43 35 29 28 28 29 31 31 29 29 33 35 32 25 20 20 20 19 20 22 22 21 20 19 19 20 21 23 25 25 23
49 52 52 52 54 55 56 56 56 56 56 56 56 57 58 57 57 57 58 60 60 59 61 61 58 56 53 51 50 49 48 47 46 47 49 52 53 54 53 52 51 53 57 56 54 52 52 52 54 54 49 45 44 46 45 38 32 31 32 31 33 34 34 33 32 33 35 34 28 21 19 20 21 22 23 24 24 22 21 20 19 18 18 21 24 24
51 53 54 54 54 56 58 58 57 57 58 58 59 60 60 60 59 59 60 61 60 62 65 63 59 58 56 51 51 51 50 50 50 50 50 51 52 54 55 52 47 46 50 54 55 55 52 50 49 46 43 44 46 45 43 38 33 33 34 34 35 35 35 35 36 36 37 37 33 27 22 20 22 23 25 26 25 24 24 23 21 18 17 18 20 23
55 56 56 56 57 57 59 59 57 57 58 59 60 60 60 60 61 61 62 62 62 65 67 65 62 63 60 54 51 51 51 52 53 52 52 53 54 55 57 57 53 50 50 51 51 54 53 51 50 47 45 48 49 42 37 38 37 36 35 35 34 33 33 34 37 40 41 41 39 34 29 25 23 23 25 28 28 26 26 25 23 20 18 17 16 19
57 58 58 60 60 59 60 61 60 59 61 62 62 61 60 59 60 62 63 63 63 65 66 64 64 64 60 56 54 52 51 52 53 53 53 53 55 56 57 59 60 59 58 54 49 47 47 48 50 50 46 49 50 41 32 32 37 38 38 37 35 32 31 31 35 41 43 43 42 39 35 32 29 27 27 28 30 30 28 27 26 23 20 18 16 16
56 57 57 59 62 61 60 61 62 62 63 66 65 62 59 58 60 61 62 62 62 63 63 63 64 62 56 55 57 57 55 54 54 54 53 53 54 56 58 60 61 62 62 62 58 52 48 47 49 48 46 48 50 44 34 31 36 39 41 43 41 38 35 34 37 40 43 44 43 41 40 39 36 34 32 31 31 33 32 31 29 27 25 22 20 18
58 59 59 61 65 65 62 61 62 63 66 68 67 62 59 59 59 60 60 60 61 62 62 63 64 63 58 57 60 62 61 60 58 56 55 54 55 56 58 60 63 64 64 65 66 63 59 57 56 55 53 53 53 48 42 41 43 44 45 47 47 45 43 42 42 42 43 44 44 43 43 44 43 40 38 36 34 34 36 36 34 32 29 27 25 23
63 64 65 66 70 70 67 66 66 68 70 70 65 61 61 61 61 61 61 61 61 63 64 65 64 63 61 60 62 63 63 63 62 60 58 58 57 57 58 60 63 66 66 67 68 67 65 62 58 56 57 59 60 57 54 53 55 53 51 51 51 51 51 49 46 45 45 46 48 48 47 46 46 44 42 41 39 37 38 39 39 37 34 32 30 28
67 69 70 72 74 75 73 73 74 75 76 72 66 65 67 67 66 65 64 62 61 62 64 65 64 63 63 62 63 64 64 63 62 61 59 59 58 58 58 58 60 63 66 68 68 69 68 66 60 56 57 59 58 56 54 53 53 54 56 58 58 57 56 53 50 47 46 47 49 51 50 49 48 47 45 43 42 40 39 40 41 41 40 37 35 33
69 71 73 74 76 77 77 77 79 80 79 75 72 73 73 71 68 67 65 63 63 63 63 64 64 64 63 63 64 64 63 62 61 60 58 57 57 58 58 58 58 59 61 63 66 67 67 66 63 60 60 59 55 53 54 53 51 50 53 57 60 58 55 54 52 50 49 48 48 50 51 50 49 48 47 45 43 41 40 40 41 43 43 42 41 38
71 72 74 75 77 79 79 78 80 82 82 79 78 77 74 71 69 67 66 65 64 64 64 64 65 65 64 65 65 65 64 62 61 61 61 59 57 56 56 57 56 57 57 58 61 66 67 65 62 61 63 62 59 56 54 53 52 50 49 51 54 55 54 53 52 50 50 50 49 49 50 50 48 47 47 46 44 43 43 43 43 44 45 45 45 44
72 73 75 76 77 78 78 79 81 83 83 80 76 72 68 66 65 66 67 66 65 65 64 62 62 62 61 60 60 60 60 57 54 55 57 57 56 53 51 51 52 53 55 55 56 61 65 65 61 60 61 60 59 58 57 55 54 54 52 50 50 49 49 50 50 50 50 51 51 50 51 51 50 49 48 47 46 45 45 45 46 47 48 48 48 47
75 76 77 78 80 80 79 80 82 83 82 78 71 65 62 60 60 62 63 63 60 58 56 55 54 53 50 48 47 46 45 44 45 47 48 47 48 47 43 42 44 47 50 53 54 57 61 62 60 59 58 55 53 52 51 50 51 53 54 53 52 50 48 49 50 50 50 51 52 53 53 52 52 51 49 47 46 45 44 44 45 47 48 50 50 49
78 80 80 81 82 81 79 80 81 80 78 73 66 61 59 59 59 58 59 58 53 47 43 44 47 49 48 46 46 44 41 37 37 40 41 39 37 37 36 34 36 41 46 49 51 53 55 55 54 53 53 53 52 50 48 47 46 47 49 51 51 51 50 50 51 52 53 53 53 54 54 53 52 51 49 47 45 44 44 44 44 45 46 48 50 51
81 82 83 83 82 79 76 75 74 71 68 64 60 56 54 53 53 53 56 58 54 47 43 42 43 46 49 47 46 45 43 39 34 32 34 35 33 31 31 32 33 36 41 44 45 45 46 47 48 47 47 48 50 50 51 50 48 47 48 50 52 53 54 53 51 51 53 53 54 54 54 53 52 51 49 48 46 45 44 44 44 44 45 46 48 50
83 84 84 83 79 75 72 70 67 63 59 55 51 48 44 42 42 44 46 50 51 51 52 52 49 47 47 48 49 48 47 47 43 36 32 35 36 32 29 30 32 35 38 42 44 43 42 45 47 48 50 52 53 53 54 54 52 48 45 45 47 48 50 51 51 50 51 52 53 54 54 53 52 50 49 48 47 46 44 43 43 44 44 45 46 49
86 85 84 80 75 71 66 62 59 55 50 45 43 42 41 41 43 45 45 47 49 48 49 53 54 50 47 47 50 51 50 49 49 46 39 36 36 36 33 32 35 37 38 40 40 40 41 45 49 51 51 52 53 54 53 51 48 45 43 43 43 43 43 45 48 49 50 51 52 53 53 52 52 51 49 48 47 45 45 44 43 43 43 44 44 46
84 81 78 73 66 61 55 51 50 48 43 40 41 42 42 43 46 48 49 51 52 50 48 48 51 54 54 53 51 51 50 48 46 48 47 44 40 38 37 37 38 41 41 41 40 39 39 42 47 50 50 49 47 47 48 47 46 46 46 45 44 42 41 42 43 45 47 48 49 50 50 50 51 50 50 48 47 46 45 44 44 43 43 43 44 45
77 71 66 60 52 47 46 44 43 41 37 35 37 40 41 42 44 46 48 48 47 45 44 44 46 51 55 57 54 52 52 52 50 48 48 48 46 43 40 39 39 42 44 46 47 46 46 46 45 43 43 44 44 43 45 45 45 43 41 40 39 37 37 38 39 40 42 43 45 46 46 47 48 48 48 48 47 46 45 45 45 44 43 44 44 44
60 52 49 49 45 40 40 40 37 34 34 35 35 38 41 43 43 43 45 46 43 39 36 36 37 43 49 53 54 50 46 47 50 51 49 48 49 48 46 43 41 42 45 48 50 49 50 51 48 42 38 38 38 39 40 40 40 38 37 37 38 37 35 35 34 34 35 38 40 42 43 43 44 45 46 46 46 45 45 45 46 45 45 45 46 46
40 37 38 41 39 32 27 28 31 33 35 35 34 36 39 40 39 40 42 43 42 39 36 33 31 33 40 47 52 51 44 37 37 40 44 46 46 47 49 48 46 44 45 47 49 50 49 50 50 47 44 43 42 41 41 41 40 40 40 41 41 41 41 40 38 36 35 34 35 37 39 41 41 42 43 44 44 44 44 45 46 47 47 47 48 48
26 27 28 29 28 23 19 19 26 32 32 31 30 31 33 35 36 37 40 41 42 41 39 36 33 31 33 39 48 54 52 45 37 32 34 39 39 38 42 47 47 47 46 45 45 47 48 48 48 49 48 46 45 44 43 41 40 41 43 44 44 44 44 44 43 42 40 37 36 37 38 40 41 41 42 42 43 43 44 44 46 47 48 49 50 50
22 22 22 21 22 22 21 19 23 27 28 30 31 31 32 34 36 38 41 41 41 41 40 38 36 33 31 33 41 50 55 55 48 38 34 35 36 34 37 41 43 44 45 45 43 43 44 44 44 45 44 43 42 43 42 41 39 39 41 43 45 46 46 45 45 44 43 42 41 40 40 40 41 42 42 43 43 43 43 44 45 46 47 49 50 51
23 24 25 25 24 23 23 23 25 24 23 26 31 33 34 36 36 37 39 40 39 39 38 37 36 35 33 32 36 44 52 57 55 48 40 37 38 39 39 41 42 41 40 40 40 40 41 42 41 41 41 40 40 41 41 41 41 39 39 40 42 44 44 44 44 43 43 43 43 43 43 42 42 42 42 43 43 43 43 44 45 46 47 48 49 50
27 27 29 31 29 25 24 27 30 27 20 20 26 31 32 34 35 34 35 35 36 36 36 34 33 33 33 32 34 39 46 54 58 55 48 42 40 41 41 40 40 40 39 38 38 38 38 38 39 39 38 38 38 38 39 40 40 40 40 40 41 42 43 43 44 43 43 44 45 45 45 45 45 45 44 44 44 45 45 45 45 46 47 47 48 49
31 32 33 36 36 32 30 32 35 34 28 25 28 32 33 34 35 34 32 32 33 34 34 34 33 31 30 29 30 33 37 46 55 59 57 50 44 43 43 41 39 38 39 39 38 38 37 37 38 38 38 38 38 37 37 37 38 39 40 41 42 43 43 44 45 45 45 45 46 46 47 47 48 48 48 47 46 46 47 46 45 45 46 47 47 48
Wind_Direction
306 309 297 284 289 301 309 308 304 301 299 296 295 295 294 296 294 290 291 285 277 277 277 277 278 281 284 283 278 273 275 277 278 279 278 280 288 292 292 292 291 283 275 279 286 300 311 311 310 314 319 327 330 326 327 329 326 324 321 319 319 321 322 321 318 313 307 300 294 291 288 284 279 271 262 257 255 254 253 251 244 238 236 234 231 228
310 308 291 287 295 303 305 304 301 299 298 298 296 295 298 302 299 296 298 289 281 283 286 283 281 283 285 286 284 280 281 281 280 281 280 277 277 281 284 286 288 286 278 279 288 296 301 302 303 308 315 324 326 320 319 323 323 321 319 319 319 320 321 321 319 314 309 304 296 291 288 286 281 274 266 259 255 254 255 255 251 246 243 241 239 234
310 296 288 293 299 301 300 299 298 298 297 296 295 297 301 299 293 294 292 284 281 285 287 283 281 281 281 282 284 283 282 280 279 280 282 282 276 272 275 279 279 281 281 280 289 296 296 298 299 303 312 321 321 316 314 316 318 316 313 315 318 319 320 321 320 317 313 308 300 291 286 284 284 281 273 265 258 254 254 254 252 249 245 243 243 240
305 290 292 299 297 296 294 293 296 295 292 291 292 295 298 293 290 290 282 277 282 289 289 282 278 279 277 274 276 279 279 278 278 279 282 284 280 272 271 273 272 275 280 278 281 291 295 299 297 298 310 317 315 313 310 309 311 309 307 310 315 317 320 320 320 319 318 315 307 297 287 283 283 285 282 272 261 255 252 251 250 247 243 242 241 241
300 293 300 302 298 296 294 294 295 292 289 287 288 292 292 289 289 290 287 279 277 280 283 282 280 280 276 270 267 267 273 278 279 280 282 284 284 279 273 268 265 271 278 275 275 284 291 293 290 294 308 313 308 307 305 305 306 303 302 306 309 313 317 319 319 318 320 321 317 307 295 286 283 285 287 279 266 258 253 251 251 249 246 243 242 240
301 301 306 305 303 303 302 301 296 293 291 287 288 290 289 288 289 292 293 291 285 275 271 275 281 283 275 269 268 267 272 278 279 279 282 283 283 284 278 264 258 265 273 272 271 278 283 284 285 292 301 302 299 299 298 300 303 302 303 306 308 312 314 315 316 316 319 322 322 317 305 291 283 283 288 285 271 259 254 251 252 253 252 250 249 247
305 306 308 307 307 308 308 305 295 291 291 292 294 291 288 291 294 296 296 294 294 291 279 274 281 288 284 273 275 276 276 276 276 276 276 278 276 277 276 261 252 258 268 270 268 274 280 282 282 284 287 286 286 290 291 294 301 304 302 304 308 312 314 313 312 311 313 317 320 321 315 298 284 281 285 286 276 262 254 252 250 250 249 247 248 250
308 308 307 308 308 308 306 302 294 292 293 297 298 291 289 292 294 295 294 292 293 293 290 289 292 295 296 293 284 280 281 280 278 275 270 268 267 270 269 256 249 252 261 266 268 273 278 278 273 271 273 276 282 288 286 285 295 302 301 302 306 310 313 311 308 305 303 305 310 315 317 307 286 277 280 283 280 268 256 252 252 251 248 245 242 242
308 307 307 307 306 304 301 298 294 292 294 295 294 291 290 290 289 289 288 288 290 289 291 299 301 295 296 298 294 289 290 290 288 282 272 265 264 269 264 250 246 249 253 259 266 271 273 271 270 271 272 274 281 289 286 281 287 295 299 301 302 303 305 303 300 297 293 292 294 301 309 309 293 275 273 277 279 276 264 254 251 251 253 251 245 239
303 304 305 305 304 302 299 296 294 292 291 291 289 289 288 287 286 286 285 286 288 287 291 298 295 292 293 294 296 299 298 296 294 289 281 273 269 269 263 250 246 248 247 248 252 258 263 267 270 274 275 275 280 287 289 285 284 288 292 295 297 299 299 296 293 291 287 283 282 286 294 302 301 285 273 272 272 274 273 263 252 247 248 250 248 241
299 300 300 301 301 298 296 295 294 293 293 292 292 291 290 288 288 287 287 287 286 287 290 291 287 287 289 291 295 300 298 296 295 291 288 285 280 275 267 256 249 248 245 242 243 246 253 262 269 274 277 277 279 284 286 284 281 282 285 286 289 294 295 292 290 289 288 284 280 278 282 291 297 296 287 278 273 271 272 271 262 250 243 242 242 237
297 297 297 297 297 295 295 296 296 294 294 294 293 292 291 291 289 288 287 286 285 286 287 285 283 283 284 287 293 296 297 296 295 293 291 289 286 281 273 262 253 250 247 244 244 246 249 256 265 272 276 278 280 283 282 280 277 275 276 277 280 284 288 287 284 284 284 282 281 278 276 280 285 291 293 288 282 274 270 269 266 257 245 240 236 231
296 295 295 295 294 293 295 297 298 297 296 296 295 294 292 290 288 286 286 284 283 284 284 283 282 282 282 284 288 290 292 292 293 293 291 286 283 279 274 265 256 253 252 250 249 250 251 254 260 266 270 275 280 281 278 277 276 274 271 270 274 282 287 283 276 275 276 276 277 276 272 270 270 274 280 283 284 280 274 268 263 259 251 245 237 229
294 293 293 293 292 293 294 295 295 295 296 295 294 292 291 289 288 286 285 284 284 284 283 282 281 281 281 282 284 285 285 286 289 290 288 284 280 275 270 265 257 253 253 255 253 252 253 254 258 260 260 265 273 274 272 274 275 274 269 267 272 284 293 287 273 267 268 270 271 272 268 264 262 262 265 269 273 276 276 271 264 258 253 250 244 236
294 293 293 293 293 294 294 293 291 291 291 289 288 288 288 287 286 285 284 284 285 285 283 281 281 281 281 281 280 281 282 283 285 286 285 283 280 275 268 262 260 256 254 256 256 255 255 253 252 250 250 256 264 268 269 268 268 268 265 264 270 280 292 297 284 268 264 264 263 266 266 263 259 257 257 260 264 267 270 270 266 260 253 249 248 246
294 294 295 296 296 295 294 293 291 289 287 284 283 285 285 284 283 282 281 281 282 281 280 280 280 281 282 281 278 278 280 283 283 281 280 279 280 278 271 264 261 262 261 260 259 259 259 254 248 247 250 256 264 267 264 259 259 262 263 263 268 277 284 291 291 282 271 263 257 257 260 260 259 256 254 255 257 260 264 267 267 264 257 251 249 247
293 295 296 296 295 294 293 293 293 292 290 287 285 284 283 282 281 280 279 278 278 278 278 279 281 282 283 282 281 280 281 283 282 281 279 278 279 280 277 270 265 265 268 270 268 264 261 257 251 250 254 260 265 263 257 255 257 260 263 264 267 275 281 281 279 280 280 274 262 253 253 256 257 255 254 254 255 257 261 267 271 271 265 258 254 250
292 293 294 293 292 291 291 291 291 291 291 291 290 287 285 283 281 280 279 278 277 277 278 279 280 282 283 283 284 284 284 283 282 280 279 278 277 276 275 271 267 266 270 276 276 271 267 265 262 257 256 261 263 258 253 254 256 257 263 269 270 272 277 277 275 276 279 280 270 255 249 250 253 255 255 256 259 262 266 271 277 280 279 271 262 257
290 291 291 289 288 287 287 287 287 286 287 288 287 286 285 283 281 279 278 278 277 276 277 278 278 279 280 282 283 284 284 283 282 279 277 276 275 273 272 271 267 264 266 273 276 273 271 271 271 270 267 266 264 259 255 254 256 260 266 271 272 270 272 274 274 274 274 276 271 256 248 248 252 258 263 266 269 273 276 278 280 282 284 281 272 262
288 289 289 289 288 288 286 286 285 285 286 285 284 284 282 280 278 277 276 277 277 277 277 277 277 278 279 280 281 282 281 282 282 280 279 277 275 273 273 274 272 268 267 269 270 269 269 268 269 271 273 272 269 265 262 259 258 263 266 269 270 268 269 272 274 274 273 273 270 262 257 257 258 260 265 269 270 272 274 275 276 277 278 278 273 263
286 286 288 289 288 288 288 288 288 289 288 287 286 283 280 277 276 274 274 275 275 276 277 277 276 277 279 280 281 282 283 282 281 281 280 278 277 275 275 276 277 275 273 272 269 267 266 264 264 265 267 269 267 265 264 261 259 261 262 263 265 265 265 267 272 273 272 272 273 271 270 271 269 262 257 258 260 261 261 260 262 265 266 269 267 259
284 284 286 287 287 287 287 288 288 288 288 287 287 284 282 280 277 275 274 272 271 271 273 274 274 275 277 280 281 282 283 283 282 280 278 277 276 275 275 276 277 276 275 273 271 270 267 264 262 262 262 263 262 262 260 257 256 257 257 256 256 258 259 260 266 271 271 272 275 276 275 277 278 272 261 256 257 258 258 257 258 259 259 260 262 259
283 283 284 285 286 287 287 287 287 286 285 285 284 283 284 283 282 281 279 276 272 270 271 271 271 272 273 275 276 278 279 280 281 279 277 275 273 272 273 274 275 275 274 272 270 269 268 266 262 260 260 260 261 262 261 256 252 251 253 254 252 251 252 255 262 268 269 269 270 272 274 274 277 278 268 259 256 256 256 257 258 261 261 258 256 257
283 283 283 284 286 286 286 286 285 284 284 283 283 284 284 283 283 282 282 281 278 276 275 273 272 275 275 272 272 273 274 275 276 277 276 274 272 271 270 271 272 272 271 271 270 269 268 265 262 261 260 259 259 262 263 259 253 247 247 248 247 245 247 253 259 261 262 263 260 261 270 271 270 274 273 264 259 256 253 251 251 254 259 258 253 250
284 283 283 285 287 287 286 284 283 281 281 282 283 283 282 282 282 282 281 281 279 280 281 279 279 282 282 277 273 270 268 268 269 272 274 274 273 271 270 270 270 269 268 267 266 268 268 264 261 261 259 257 258 261 262 258 248 239 239 241 242 243 247 252 255 253 254 255 251 247 253 260 264 268 271 269 266 262 255 248 247 250 253 255 253 250
286 285 285 287 288 289 288 286 284 282 282 281 281 280 280 280 280 280 280 279 279 281 280 279 281 284 283 282 279 274 269 267 265 265 267 270 271 271 269 268 268 268 268 266 263 263 265 264 264 264 261 258 259 260 257 249 239 238 243 244 243 244 246 247 247 247 249 253 252 247 247 252 256 261 267 270 269 266 260 254 252 254 255 254 251 250
289 288 288 288 289 290 289 287 285 284 284 284 282 281 280 279 279 279 279 279 281 281 278 277 280 280 278 279 280 279 276 274 270 265 263 264 267 268 268 267 268 269 269 267 265 263 263 264 265 264 260 258 260 259 251 240 235 240 242 240 240 241 242 244 244 245 248 251 251 248 247 252 254 256 263 270 271 267 262 259 259 263 269 266 253 245
289 289 288 288 288 289 288 286 285 285 285 284 283 281 280 280 279 279 280 281 282 281 279 279 280 279 277 277 277 277 278 276 273 270 266 264 263 264 265 265 266 269 269 269 267 265 265 263 262 260 258 261 266 261 246 234 229 231 234 237 238 239 242 246 248 250 250 250 248 244 242 248 253 256 258 263 269 270 265 264 265 269 284 288 262 240
291 290 289 289 288 289 288 287 286 286 285 284 283 282 281 280 281 281 281 281 280 280 280 281 280 279 280 280 276 274 273 272 271 270 268 265 263 261 261 260 259 260 264 267 268 266 263 259 257 259 261 263 263 252 234 227 225 223 226 232 234 238 244 249 252 253 252 249 246 242 239 241 247 253 257 259 263 267 268 267 268 269 279 292 276 245
290 291 291 290 289 290 290 289 288 288 287 285 284 283 282 283 283 283 282 281 280 279 280 281 279 278 279 279 277 273 270 268 267 266 264 263 261 259 258 258 257 255 256 258 260 260 259 257 258 260 260 258 252 237 225 226 226 222 224 228 230 235 243 250 254 252 249 246 244 242 241 241 243 247 253 257 259 263 266 267 268 269 270 278 280 261
289 290 290 289 289 291 292 290 289 289 287 286 286 285 286 286 285 284 282 281 279 278 278 278 277 277 277 276 274 272 269 266 264 263 262 260 258 256 256 256 256 255 254 253 251 251 252 253 256 257 257 256 247 234 227 231 231 229 230 231 233 237 245 255 257 252 247 243 242 242 243 244 244 245 249 254 257 260 264 265 266 267 266 267 270 269
292 292 292 291 291 293 294 291 289 288 288 288 289 290 291 288 285 283 281 280 279 278 278 277 277 278 277 274 271 271 269 267 264 262 261 258 256 254 253 253 254 254 254 253 253 252 251 252 254 256 255 253 249 245 247 253 254 250 242 238 238 243 252 259 259 254 250 246 243 243 245 246 245 245 248 252 255 257 262 266 267 267 266 265 264 265
296 296 296 295 294 295 295 293 292 290 290 291 293 294 291 288 284 282 281 280 280 279 278 278 277 278 277 274 271 270 269 268 267 265 261 258 255 253 250 250 251 252 253 253 253 254 254 254 255 258 258 254 254 257 262 264 264 261 255 249 248 251 257 260 257 253 251 249 247 246 245 245 245 245 248 252 255 256 258 263 267 268 267 266 265 263
299 298 298 297 296 296 295 294 293 292 292 294 295 293 291 289 286 285 284 282 279 277 276 276 275 274 273 271 269 267 266 266 267 267 264 260 257 254 251 249 249 250 252 253 253 254 255 256 255 256 259 259 259 261 261 260 260 260 259 258 257 256 258 257 255 254 252 251 250 248 246 246 246 246 248 251 255 257 257 259 263 267 268 268 267 265
300 299 298 298 298 297 296 295 294 293 294 296 295 294 293 290 287 285 283 280 277 274 273 272 272 271 270 269 267 266 265 264 264 266 266 263 260 257 255 253 251 250 251 254 255 254 255 257 256 255 256 258 257 256 254 253 253 253 252 253 255 256 256 255 254 254 253 251 250 249 247 246 246 247 249 251 255 258 259 259 260 263 266 267 267 267
300 299 299 299 299 298 298 296 295 295 296 296 294 293 291 289 286 283 280 277 275 273 271 270 269 269 269 269 268 267 267 266 267 268 268 266 264 261 258 257 255 253 251 252 255 256 255 256 257 256 255 256 256 253 250 248 249 249 246 245 248 250 251 252 253 252 252 251 250 248 246 244 245 247 249 252 254 256 258 259 259 260 263 264 265 266
301 300 300 299 299 299 297 296 295 296 295 294 292 290 287 285 283 280 277 274 273 272 271 270 269 269 270 271 272 271 270 269 269 269 268 267 267 266 264 261 258 256 254 252 251 253 255 256 256 255 255 257 258 257 252 248 247 249 248 247 247 246 246 247 249 251 252 252 251 249 246 245 248 251 253 255 256 256 257 257 257 257 259 261 262 262
301 301 301 300 300 299 296 294 294 294 293 293 292 290 287 284 280 276 274 272 271 271 271 270 269 268 266 265 269 272 272 271 268 267 268 269 267 265 263 262 258 255 254 254 251 250 252 254 254 255 256 258 258 254 247 243 242 244 247 249 249 248 247 248 250 252 254 254 254 252 250 249 252 256 258 258 257 256 256 255 255 254 254 256 257 258
302 302 302 301 300 298 295 294 294 293 293 294 294 291 288 286 281 276 272 269 267 266 266 266 265 264 261 258 260 263 264 265 265 266 267 268 266 261 257 256 255 252 250 251 249 248 249 250 251 251 252 252 250 244 238 237 238 241 246 251 254 256 256 256 256 256 256 257 257 257 255 254 255 258 259 258 257 255 253 252 252 252 251 251 253 254
303 303 302 300 298 296 294 293 293 293 294 295 293 291 289 287 283 278 274 270 265 258 256 257 259 260 260 258 256 254 251 251 257 262 263 262 262 259 253 249 250 251 250 249 247 244 243 243 242 241 240 240 238 235 235 240 246 251 255 258 261 262 262 262 260 258 257 257 258 258 258 258 257 258 258 257 256 255 253 250 249 248 248 248 249 250
304 302 300 298 297 295 295 294 294 293 294 295 294 291 287 281 277 277 276 274 269 260 254 253 255 259 261 258 255 252 248 247 251 255 257 258 258 255 250 245 244 245 244 242 241 241 238 236 235 235 235 236 238 240 242 247 252 258 260 260 259 259 259 259 258 257 256 256 256 256 256 257 257 256 256 256 255 254 253 251 248 246 245 245 245 247
303 301 299 298 297 296 297 296 295 296 297 297 295 293 288 283 280 279 279 279 277 270 262 256 254 254 257 257 256 254 250 249 250 250 252 256 255 251 247 243 242 241 237 232 233 237 236 233 233 234 234 236 241 245 246 248 251 256 258 258 257 257 256 255 255 254 254 253 254 254 254 255 255 255 255 254 253 252 251 250 248 246 244 243 242 242
303 301 300 300 299 298 298 297 296 298 300 299 297 295 293 291 289 287 286 285 283 280 275 267 259 254 253 256 260 259 254 251 249 248 248 252 253 248 243 240 241 241 238 233 233 234 230 226 227 230 234 239 243 246 247 249 251 254 256 256 257 258 256 253 252 253 252 252 252 253 253 253 254 254 253 252 251 250 249 249 247 245 243 242 240 239
303 303 302 300 298 297 297 297 299 301 301 301 299 296 294 293 293 292 293 292 292 290 285 276 266 259 255 255 258 261 261 259 257 252 249 249 251 249 243 239 240 241 239 237 237 235 232 230 226 223 226 232 235 239 244 246 247 249 252 253 256 259 258 256 254 254 254 253 253 253 253 252 252 252 251 250 249 248 246 246 245 244 242 241 239 238
305 302 298 296 297 300 303 305 307 306 302 298 296 294 294 296 297 296 296 297 300 302 298 288 275 264 257 254 252 252 255 257 258 256 251 247 247 247 245 241 241 242 240 238 237 235 234 234 229 222 222 229 233 235 240 244 247 249 253 256 259 262 263 261 259 258 256 255 255 255 255 253 251 250 250 249 247 245 243 242 241 241 240 238 237 236
305 297 295 298 302 310 319 316 308 303 299 298 299 299 301 304 305 301 299 300 303 303 302 300 292 275 262 254 247 243 240 239 242 246 245 242 241 243 242 240 240 242 241 238 237 237 236 235 234 236 242 248 250 250 250 253 255 257 257 259 261 264 266 266 264 263 261 256 253 255 256 255 253 251 249 248 246 243 240 238 238 238 237 236 235 234
316 309 310 311 310 321 342 333 310 304 303 307 312 313 310 309 309 305 303 302 303 302 300 299 297 289 275 261 249 244 243 241 237 233 234 234 235 240 241 239 238 240 241 241 240 240 242 244 246 249 251 253 254 255 256 258 258 257 256 258 260 263 265 265 266 266 266 262 257 255 255 256 255 253 251 249 248 245 241 238 236 236 236 235 235 233
345 335 332 330 325 331 344 339 319 312 312 314 316 316 313 311 308 305 303 302 301 301 300 297 294 289 282 270 256 248 247 246 243 236 228 225 225 228 233 235 236 238 240 242 242 243 244 246 248 249 249 250 252 254 255 256 257 257 255 255 257 260 262 264 265 266 267 267 264 259 256 254 254 254 253 251 250 247 245 242 239 236 235 235 235 235
349 342 336 334 335 337 338 330 320 316 315 314 314 313 312 311 307 304 302 301 301 300 299 298 296 290 282 275 263 252 247 246 245 240 230 223 222 221 222 226 230 232 234 237 239 241 243 243 244 243 244 247 250 252 254 255 256 257 256 256 257 259 261 262 263 264 265 266 265 262 259 255 252 252 252 252 250 249 246 245 243 241 238 237 237 238
341 338 334 331 332 336 333 323 317 315 315 313 313 313 312 310 307 306 305 302 300 299 298 299 300 297 292 285 274 261 250 245 245 243 235 226 223 222 222 223 225 227 228 230 233 238 241 243 245 245 245 247 248 250 252 254 255 257 258 259 260 261 262 263 263 263 263 263 262 261 259 256 253 251 250 250 250 250 247 245 244 244 243 241 241 240
334 334 332 328 329 333 331 322 316 314 314 312 309 308 310 308 305 305 306 304 302 300 298 299 301 302 301 297 290 280 264 248 243 243 240 232 226 223 224 224 225 226 227 229 233 238 242 246 248 249 250 251 251 252 253 254 256 258 260 261 262 263 264 265 265 265 265 264 262 261 259 257 254 252 250 248 249 249 249 247 246 246 246 246 246 245
Height
5822 5822 5820 5817 5815 5815 5815 5814 5814 5813 5812 5811 5811 5811 5810 5811 5811 5810 5810 5809 5804 5801 5803 5803 5801 5801 5802 5803 5802 5801 5801 5800 5799 5800 5801 5801 5801 5801 5801 5800 5800 5799 5798 5797 5796 5796 5796 5796 5795 5794 5793 5792 5790 5788 5788 5787 5786 5785 5784 5784 5782 5781 5780 5780 5780 5780 5780 5780 5780 5779 5779 5779 5779 5779 5779 5779 5779 5779 5779 5780 5780 5780 5780 5780 5781 5782
5820 5820 5817 5814 5814 5814 5813 5812 5812 5810 5809 5809 5808 5808 5808 5808 5807 5808 5808 5806 5801 5798 5800 5801 5799 5800 5800 5800 5800 5800 5799 5798 5797 5797 5798 5798 5799 5799 5799 5799 5799 5798 5797 5796 5796 5795 5794 5794 5794 5793 5792 5791 5790 5788 5787 5786 5785 5784 5783 5782 5781 5780 5780 5779 5779 5779 5779 5779 5779 5779 5779 5778 5778 5778 5778 5778 5778 5778 5779 5779 5779 5779 5779 5780 5780 5781
5819 5817 5814 5813 5813 5812 5811 5810 5810 5809 5807 5806 5805 5805 5806 5805 5804 5805 5806 5803 5799 5797 5797 5797 5797 5798 5799 5798 5798 5797 5797 5796 5795 5795 5795 5795 5796 5796 5797 5797 5796 5796 5796 5796 5795 5794 5793 5793 5793 5793 5792 5791 5789 5788 5786 5786 5785 5784 5782 5781 5780 5779 5779 5778 5778 5778 5778 5778 5778 5778 5778 5778 5778 5778 5777 5777 5777 5777 5778 5778 5778 5778 5779 5779 5779 5780
5818 5815 5813 5813 5812 5811 5810 5809 5808 5807 5805 5804 5804 5803 5803 5802 5800 5801 5803 5801 5799 5797 5795 5794 5794 5795 5796 5795 5795 5794 5794 5794 5793 5793 5793 5793 5793 5793 5793 5794 5794 5794 5794 5794 5794 5793 5792 5792 5792 5792 5791 5790 5788 5787 5786 5785 5784 5783 5782 5780 5779 5778 5778 5778 5778 5777 5777 5777 5777 5777 5777 5777 5777 5777 5776 5776 5776 5776 5776 5776 5777 5777 5777 5778 5778 5779
5817 5813 5812 5812 5811 5810 5809 5808 5806 5804 5803 5802 5802 5801 5800 5799 5797 5797 5798 5798 5798 5798 5794 5791 5790 5793 5794 5792 5792 5791 5790 5791 5791 5790 5791 5790 5790 5790 5790 5791 5791 5792 5792 5792 5792 5791 5790 5790 5790 5790 5790 5789 5787 5786 5785 5784 5783 5783 5782 5780 5779 5778 5778 5778 5777 5777 5777 5777 5777 5776 5776 5776 5776 5776 5775 5775 5775 5775 5775 5775 5775 5776 5776 5777 5777 5778
5815 5812 5811 5810 5809 5808 5808 5808 5805 5802 5801 5800 5801 5800 5797 5796 5795 5794 5794 5793 5794 5796 5795 5790 5788 5790 5792 5791 5789 5789 5788 5788 5788 5787 5787 5787 5786 5786 5787 5788 5789 5789 5790 5790 5790 5790 5789 5789 5789 5788 5788 5787 5786 5784 5783 5783 5782 5782 5782 5781 5779 5778 5778 5778 5778 5777 5777 5777 5776 5776 5775 5775 5775 5775 5774 5773 5773 5773 5773 5774 5774 5774 5775 5776 5777 5777
5813 5811 5810 5809 5808 5807 5806 5806 5804 5801 5798 5798 5800 5799 5795 5794 5793 5792 5792 5790 5789 5791 5792 5791 5787 5785 5787 5789 5788 5786 5786 5786 5785 5784 5784 5784 5784 5784 5784 5785 5786 5787 5787 5787 5788 5788 5787 5787 5787 5786 5785 5784 5783 5783 5782 5782 5782 5782 5781 5780 5780 5779 5778 5778 5777 5777 5777 5776 5776 5775 5774 5774 5773 5773 5773 5772 5772 5772 5772 5772 5772 5773 5774 5774 5775 5775
5811 5809 5808 5807 5806 5805 5804 5803 5801 5799 5797 5797 5798 5797 5794 5793 5792 5790 5790 5788 5787 5786 5786 5787 5785 5781 5781 5784 5784 5783 5783 5783 5782 5782 5781 5781 5781 5781 5782 5782 5783 5784 5785 5785 5785 5785 5785 5785 5784 5783 5782 5781 5781 5781 5782 5782 5781 5781 5780 5780 5780 5779 5778 5777 5777 5777 5776 5776 5775 5774 5773 5772 5772 5772 5771 5771 5770 5770 5770 5770 5771 5771 5772 5772 5773 5773
5809 5807 5806 5805 5804 5803 5802 5801 5799 5797 5795 5795 5795 5794 5792 5791 5790 5789 5787 5786 5785 5783 5782 5784 5782 5778 5777 5779 5780 5781 5781 5780 5780 5779 5779 5779 5779 5779 5779 5779 5780 5781 5782 5782 5783 5783 5783 5782 5781 5780 5779 5779 5780 5780 5780 5781 5780 5780 5780 5779 5779 5778 5777 5777 5776 5775 5775 5774 5774 5773 5772 5771 5770 5770 5770 5769 5769 5769 5769 5769 5769 5769 5770 5770 5771 5771
5807 5805 5804 5803 5801 5800 5799 5798 5797 5794 5793 5793 5791 5791 5790 5788 5787 5786 5784 5783 5782 5779 5779 5781 5779 5775 5774 5775 5777 5778 5778 5777 5777 5776 5776 5776 5776 5777 5776 5776 5777 5778 5778 5779 5780 5780 5780 5779 5778 5777 5777 5778 5778 5778 5778 5779 5779 5780 5780 5779 5778 5777 5777 5776 5775 5774 5773 5773 5772 5772 5771 5771 5770 5769 5768 5768 5767 5767 5767 5767 5767 5768 5768 5768 5769 5769
5804 5803 5802 5800 5798 5797 5796 5796 5794 5792 5790 5789 5787 5786 5786 5785 5784 5782 5781 5780 5777 5775 5777 5778 5776 5773 5771 5771 5773 5775 5775 5774 5774 5773 5773 5773 5773 5774 5774 5774 5774 5775 5775 5776 5776 5777 5777 5776 5775 5774 5775 5776 5776 5776 5777 5778 5778 5779 5779 5778 5777 5776 5775 5775 5774 5773 5773 5772 5771 5771 5770 5769 5769 5768 5767 5766 5766 5765 5765 5765 5765 5766 5766 5766 5766 5766
5801 5800 5799 5797 5795 5793 5792 5792 5791 5789 5787 5785 5783 5782 5781 5781 5780 5779 5778 5776 5773 5773 5774 5773 5771 5770 5769 5769 5771 5772 5771 5771 5770 5770 5770 5770 5770 5771 5771 5771 5772 5772 5772 5772 5772 5773 5774 5774 5773 5772 5773 5774 5774 5774 5775 5776 5776 5777 5777 5776 5775 5774 5773 5773 5772 5772 5771 5771 5770 5770 5769 5768 5768 5767 5766 5765 5764 5764 5764 5764 5764 5764 5764 5764 5764 5764
5796 5796 5795 5793 5791 5789 5788 5788 5787 5785 5784 5782 5780 5779 5778 5777 5776 5775 5774 5773 5771 5770 5771 5769 5767 5766 5766 5767 5768 5769 5769 5768 5767 5767 5767 5767 5767 5767 5768 5768 5768 5768 5768 5769 5770 5770 5771 5771 5771 5771 5771 5771 5771 5771 5771 5773 5774 5774 5774 5773 5773 5772 5771 5770 5770 5769 5769 5769 5768 5768 5767 5766 5765 5765 5764 5763 5763 5763 5762 5762 5762 5763 5763 5763 5763 5763
5791 5791 5791 5790 5787 5786 5785 5784 5783 5782 5781 5779 5776 5775 5774 5773 5771 5770 5770 5768 5767 5767 5767 5765 5764 5762 5763 5765 5765 5765 5766 5765 5765 5764 5764 5764 5764 5764 5764 5764 5764 5765 5764 5765 5766 5767 5767 5767 5768 5770 5770 5769 5768 5767 5767 5770 5771 5770 5770 5770 5770 5770 5769 5767 5766 5766 5766 5766 5766 5765 5764 5763 5763 5762 5762 5762 5761 5761 5761 5761 5761 5761 5761 5761 5761 5762
5785 5785 5785 5785 5784 5782 5781 5780 5779 5778 5778 5776 5774 5773 5772 5770 5768 5766 5765 5764 5762 5762 5761 5761 5759 5757 5759 5762 5762 5762 5762 5762 5762 5761 5760 5760 5760 5760 5761 5761 5761 5762 5762 5762 5762 5763 5764 5764 5765 5767 5767 5765 5765 5764 5765 5766 5766 5765 5765 5765 5766 5767 5766 5765 5763 5763 5763 5763 5763 5762 5761 5761 5760 5760 5760 5759 5759 5759 5759 5759 5759 5759 5759 5759 5759 5760
5779 5779 5780 5780 5779 5777 5776 5775 5774 5774 5774 5772 5771 5770 5768 5767 5764 5762 5761 5760 5758 5756 5755 5756 5755 5754 5754 5756 5758 5758 5758 5758 5758 5757 5757 5756 5756 5756 5757 5758 5758 5759 5759 5759 5759 5760 5760 5761 5762 5763 5763 5762 5761 5761 5761 5761 5760 5760 5760 5762 5763 5764 5763 5763 5762 5761 5761 5760 5759 5758 5758 5758 5758 5757 5757 5757 5757 5758 5758 5758 5758 5758 5758 5758 5758 5758
5775 5775 5775 5775 5773 5772 5770 5769 5768 5768 5767 5767 5767 5767 5764 5762 5760 5758 5756 5755 5754 5751 5749 5751 5750 5749 5749 5749 5751 5753 5754 5754 5754 5753 5753 5752 5752 5752 5752 5752 5753 5754 5755 5755 5756 5757 5757 5757 5758 5759 5758 5758 5757 5757 5756 5757 5757 5758 5757 5758 5760 5761 5760 5760 5760 5759 5759 5758 5756 5755 5754 5754 5754 5754 5754 5755 5756 5757 5757 5758 5758 5758 5758 5758 5758 5758
5770 5770 5771 5770 5768 5768 5766 5764 5764 5762 5761 5761 5761 5761 5760 5758 5756 5753 5750 5749 5748 5745 5744 5746 5746 5745 5745 5744 5744 5747 5748 5749 5749 5749 5748 5747 5746 5746 5746 5747 5748 5749 5749 5750 5752 5753 5753 5753 5754 5755 5755 5754 5753 5752 5752 5753 5754 5755 5754 5755 5757 5757 5758 5757 5757 5756 5755 5754 5752 5751 5749 5749 5748 5749 5751 5754 5756 5757 5758 5759 5759 5759 5759 5758 5758 5758
5766 5765 5766 5764 5763 5763 5762 5760 5760 5758 5758 5757 5756 5755 5754 5752 5750 5748 5745 5742 5741 5738 5737 5739 5741 5741 5741 5740 5740 5741 5742 5743 5744 5744 5742 5741 5740 5742 5742 5742 5742 5743 5744 5744 5745 5747 5748 5749 5750 5750 5751 5751 5750 5748 5748 5749 5750 5751 5752 5753 5753 5753 5754 5754 5753 5753 5751 5749 5747 5745 5743 5744 5746 5749 5752 5755 5756 5757 5758 5759 5759 5759 5759 5759 5758 5758
5762 5760 5759 5759 5758 5757 5756 5755 5754 5753 5753 5753 5752 5750 5748 5746 5744 5743 5741 5737 5734 5732 5730 5731 5735 5736 5736 5736 5735 5736 5737 5738 5738 5738 5736 5735 5736 5738 5738 5737 5737 5738 5739 5740 5740 5740 5742 5743 5744 5745 5745 5746 5745 5744 5744 5746 5747 5748 5748 5749 5749 5749 5750 5750 5749 5749 5747 5744 5742 5742 5742 5744 5747 5751 5753 5754 5755 5755 5756 5756 5757 5757 5757 5757 5757 5757
5758 5756 5754 5754 5753 5751 5750 5749 5748 5748 5747 5746 5746 5744 5742 5741 5739 5737 5736 5734 5730 5726 5724 5723 5726 5731 5732 5731 5730 5730 5731 5733 5733 5733 5731 5730 5731 5733 5732 5731 5732 5733 5734 5735 5735 5735 5736 5737 5738 5739 5739 5740 5741 5740 5740 5742 5743 5743 5744 5744 5745 5745 5745 5746 5744 5744 5743 5740 5738 5741 5743 5744 5746 5748 5750 5751 5751 5751 5752 5753 5753 5754 5754 5755 5755 5755
5754 5752 5750 5750 5749 5748 5747 5746 5744 5743 5741 5740 5739 5737 5736 5735 5734 5731 5730 5731 5727 5722 5720 5717 5717 5724 5729 5727 5725 5725 5725 5725 5726 5727 5726 5725 5726 5727 5726 5725 5726 5727 5728 5729 5730 5730 5731 5731 5732 5733 5734 5734 5736 5735 5735 5736 5737 5737 5738 5739 5740 5741 5741 5741 5741 5740 5739 5737 5737 5739 5742 5744 5744 5745 5747 5748 5748 5749 5749 5750 5751 5752 5752 5752 5753 5753
5749 5747 5745 5745 5745 5744 5742 5742 5740 5738 5737 5736 5734 5731 5730 5729 5727 5724 5722 5723 5721 5717 5717 5713 5708 5716 5726 5724 5721 5721 5720 5719 5719 5719 5719 5719 5720 5721 5720 5718 5719 5720 5721 5722 5723 5724 5725 5725 5725 5726 5727 5728 5729 5730 5730 5730 5730 5730 5731 5733 5734 5735 5736 5737 5737 5736 5735 5735 5736 5737 5740 5742 5742 5742 5743 5744 5745 5746 5747 5748 5749 5750 5750 5751 5751 5751
5744 5741 5739 5740 5741 5740 5737 5736 5735 5733 5731 5730 5729 5727 5725 5723 5721 5718 5714 5712 5710 5710 5711 5707 5701 5708 5718 5719 5716 5715 5715 5715 5713 5711 5711 5711 5713 5715 5714 5713 5713 5713 5714 5715 5716 5717 5717 5718 5718 5719 5720 5722 5723 5724 5724 5724 5724 5724 5725 5727 5728 5729 5731 5732 5733 5733 5732 5732 5734 5735 5737 5738 5740 5739 5740 5742 5742 5742 5743 5744 5746 5747 5747 5748 5749 5749
5739 5735 5733 5733 5735 5735 5734 5732 5729 5728 5726 5725 5724 5722 5719 5717 5714 5712 5708 5704 5701 5703 5705 5698 5693 5702 5709 5708 5708 5708 5707 5708 5708 5706 5705 5704 5705 5708 5708 5707 5707 5707 5708 5710 5711 5710 5710 5711 5712 5712 5714 5716 5717 5717 5717 5718 5718 5718 5719 5720 5722 5723 5725 5727 5728 5729 5729 5729 5730 5733 5733 5734 5736 5737 5737 5739 5740 5740 5740 5741 5743 5743 5744 5745 5746 5747
5733 5730 5728 5728 5727 5726 5727 5725 5722 5722 5722 5721 5720 5717 5714 5712 5709 5705 5701 5696 5694 5697 5697 5691 5688 5695 5700 5698 5698 5699 5698 5699 5702 5702 5700 5698 5698 5700 5701 5701 5700 5700 5700 5702 5704 5704 5705 5705 5705 5706 5709 5710 5710 5709 5709 5710 5710 5710 5712 5714 5716 5718 5720 5721 5723 5724 5724 5725 5726 5729 5730 5731 5733 5734 5735 5736 5737 5739 5739 5739 5740 5741 5741 5742 5743 5745
5727 5724 5722 5722 5721 5718 5717 5716 5714 5714 5714 5714 5713 5709 5706 5705 5703 5698 5693 5690 5690 5688 5685 5686 5686 5686 5691 5694 5690 5688 5689 5691 5693 5695 5694 5693 5693 5692 5692 5693 5694 5693 5692 5693 5695 5697 5699 5700 5699 5700 5702 5703 5702 5701 5701 5702 5702 5702 5706 5709 5710 5711 5713 5715 5718 5719 5720 5721 5722 5724 5726 5728 5730 5731 5732 5733 5734 5736 5737 5737 5738 5739 5739 5739 5740 5742
5721 5719 5716 5715 5715 5712 5708 5705 5705 5706 5706 5706 5704 5701 5698 5696 5694 5690 5686 5685 5684 5676 5671 5680 5681 5675 5681 5690 5687 5681 5682 5682 5682 5684 5685 5686 5686 5685 5685 5685 5686 5687 5686 5685 5687 5689 5691 5693 5693 5695 5696 5696 5695 5695 5694 5694 5694 5696 5699 5702 5704 5705 5707 5710 5712 5714 5715 5717 5718 5721 5723 5725 5727 5728 5730 5731 5731 5733 5734 5735 5736 5737 5737 5737 5737 5739
5713 5711 5709 5707 5708 5708 5702 5695 5696 5698 5697 5696 5695 5692 5689 5688 5685 5682 5679 5678 5674 5666 5664 5672 5672 5667 5672 5681 5680 5675 5674 5673 5673 5673 5674 5676 5678 5677 5677 5677 5678 5679 5679 5679 5680 5681 5683 5685 5686 5689 5692 5691 5689 5689 5689 5688 5688 5689 5692 5695 5698 5700 5702 5704 5707 5708 5710 5712 5714 5717 5720 5722 5724 5725 5727 5728 5729 5730 5731 5732 5734 5735 5736 5736 5735 5736
5705 5704 5702 5697 5698 5702 5697 5687 5686 5689 5686 5684 5685 5683 5681 5680 5678 5674 5670 5668 5665 5659 5658 5661 5660 5660 5667 5671 5667 5665 5664 5663 5663 5663 5664 5666 5668 5668 5669 5669 5670 5671 5673 5673 5674 5674 5677 5679 5679 5682 5685 5685 5683 5684 5684 5683 5683 5683 5685 5688 5691 5694 5696 5699 5701 5703 5704 5706 5709 5712 5715 5718 5720 5722 5723 5725 5726 5727 5728 5729 5730 5732 5734 5734 5734 5735
5699 5697 5695 5689 5686 5694 5694 5682 5677 5678 5675 5672 5674 5675 5674 5672 5669 5664 5660 5658 5656 5652 5652 5651 5647 5651 5661 5661 5654 5652 5653 5653 5652 5653 5655 5657 5659 5659 5660 5661 5661 5662 5664 5665 5666 5667 5669 5671 5672 5674 5677 5677 5677 5679 5679 5678 5678 5679 5680 5683 5685 5688 5691 5694 5696 5698 5699 5701 5703 5706 5709 5712 5715 5717 5719 5721 5723 5724 5724 5725 5727 5729 5731 5732 5732 5733
5692 5689 5688 5682 5675 5681 5686 5676 5668 5668 5665 5662 5663 5665 5666 5662 5657 5654 5651 5648 5646 5643 5642 5641 5638 5641 5650 5650 5643 5641 5642 5642 5642 5644 5646 5647 5649 5650 5651 5652 5652 5653 5655 5656 5657 5659 5660 5662 5664 5667 5669 5670 5670 5673 5673 5672 5672 5675 5677 5678 5679 5682 5685 5688 5691 5692 5694 5695 5698 5700 5704 5707 5710 5712 5714 5717 5719 5720 5721 5721 5723 5725 5727 5729 5730 5730
5683 5678 5678 5672 5664 5670 5675 5665 5658 5656 5653 5654 5656 5654 5652 5648 5644 5643 5642 5639 5638 5634 5630 5629 5629 5630 5634 5635 5633 5632 5632 5633 5635 5636 5636 5637 5638 5639 5640 5642 5643 5643 5645 5646 5648 5649 5651 5653 5656 5658 5660 5661 5662 5665 5666 5665 5665 5667 5670 5672 5673 5675 5679 5682 5685 5686 5688 5690 5691 5694 5698 5701 5704 5706 5709 5711 5714 5716 5717 5717 5718 5720 5722 5725 5726 5727
5674 5668 5666 5661 5654 5657 5661 5654 5645 5642 5643 5647 5647 5642 5639 5635 5630 5630 5631 5630 5628 5624 5619 5618 5618 5619 5620 5621 5621 5621 5622 5625 5627 5627 5627 5627 5628 5629 5630 5632 5633 5634 5635 5636 5638 5640 5642 5644 5648 5650 5651 5652 5655 5657 5658 5657 5657 5659 5661 5663 5665 5667 5671 5674 5677 5679 5681 5684 5686 5688 5691 5695 5698 5700 5703 5706 5708 5710 5713 5714 5714 5714 5716 5719 5721 5723
5666 5659 5654 5651 5645 5643 5645 5641 5632 5629 5634 5638 5634 5629 5628 5624 5619 5618 5618 5616 5615 5613 5611 5609 5606 5606 5607 5607 5607 5608 5611 5615 5617 5617 5616 5616 5618 5619 5621 5622 5624 5626 5626 5628 5629 5631 5633 5636 5639 5643 5644 5644 5647 5649 5650 5650 5651 5650 5651 5653 5655 5659 5662 5666 5669 5671 5674 5677 5679 5682 5684 5688 5691 5694 5696 5699 5702 5704 5706 5708 5710 5710 5711 5713 5715 5718
5657 5651 5644 5641 5637 5631 5628 5626 5619 5616 5623 5626 5621 5617 5617 5613 5609 5606 5603 5602 5602 5601 5600 5600 5597 5595 5595 5595 5596 5598 5600 5605 5608 5606 5603 5605 5607 5609 5611 5613 5616 5617 5619 5621 5622 5622 5625 5628 5631 5635 5636 5636 5638 5641 5642 5642 5642 5642 5642 5644 5647 5651 5654 5657 5660 5663 5666 5669 5672 5675 5678 5681 5684 5687 5690 5692 5695 5698 5700 5702 5704 5706 5707 5708 5709 5712
5647 5642 5635 5631 5628 5622 5615 5610 5607 5604 5606 5609 5609 5607 5605 5602 5599 5594 5588 5588 5590 5589 5588 5589 5587 5586 5586 5586 5587 5588 5591 5596 5597 5594 5592 5594 5597 5599 5602 5605 5607 5609 5610 5612 5614 5615 5616 5619 5624 5627 5628 5628 5630 5632 5633 5632 5632 5633 5636 5638 5641 5643 5646 5649 5652 5655 5658 5661 5664 5668 5671 5674 5677 5680 5683 5685 5688 5691 5693 5696 5698 5700 5701 5702 5704 5706
5638 5633 5627 5620 5616 5613 5605 5597 5595 5591 5589 5592 5595 5594 5592 5589 5586 5581 5574 5574 5579 5580 5579 5578 5576 5576 5578 5579 5580 5581 5583 5586 5587 5584 5584 5586 5588 5590 5593 5596 5598 5600 5601 5602 5605 5608 5609 5612 5617 5619 5620 5621 5622 5623 5623 5622 5623 5626 5629 5631 5634 5637 5639 5642 5645 5648 5650 5653 5656 5660 5664 5667 5670 5672 5675 5678 5681 5684 5686 5689 5691 5693 5695 5697 5698 5700
5630 5623 5618 5610 5603 5600 5594 5587 5583 5579 5577 5580 5582 5581 5579 5576 5572 5568 5562 5562 5568 5572 5570 5569 5568 5567 5568 5570 5572 5574 5576 5577 5578 5578 5578 5579 5581 5582 5585 5588 5590 5591 5591 5592 5595 5599 5601 5605 5609 5611 5612 5613 5613 5612 5613 5614 5616 5619 5621 5623 5626 5629 5632 5634 5637 5640 5644 5646 5649 5652 5655 5659 5662 5664 5667 5670 5673 5676 5679 5681 5684 5686 5689 5691 5692 5694
5621 5614 5608 5600 5594 5589 5583 5577 5573 5570 5570 5571 5571 5569 5569 5565 5559 5555 5550 5550 5557 5562 5560 5559 5559 5558 5559 5561 5563 5566 5567 5568 5570 5572 5573 5574 5575 5576 5578 5580 5582 5584 5584 5584 5587 5590 5593 5596 5600 5602 5603 5604 5603 5602 5605 5607 5610 5612 5614 5616 5619 5622 5623 5626 5630 5633 5636 5639 5642 5644 5647 5650 5654 5656 5659 5661 5664 5667 5670 5673 5676 5679 5681 5684 5686 5688
5612 5605 5598 5591 5584 5579 5574 5568 5563 5562 5564 5565 5562 5559 5558 5554 5550 5547 5543 5540 5543 5549 5550 5550 5550 5551 5551 5551 5553 5556 5559 5560 5562 5564 5566 5568 5569 5571 5573 5575 5576 5579 5579 5578 5579 5582 5585 5588 5591 5593 5595 5596 5594 5595 5599 5602 5604 5605 5607 5610 5612 5614 5616 5619 5622 5626 5629 5632 5635 5637 5639 5642 5645 5648 5651 5653 5656 5659 5661 5664 5667 5670 5673 5677 5679 5682
5600 5592 5587 5583 5575 5568 5565 5560 5554 5554 5558 5558 5554 5550 5548 5545 5542 5540 5538 5534 5534 5538 5541 5542 5543 5544 5543 5543 5545 5547 5550 5553 5555 5557 5559 5562 5563 5566 5568 5570 5571 5573 5574 5574 5573 5574 5578 5580 5582 5584 5587 5588 5588 5590 5593 5595 5597 5598 5600 5602 5604 5607 5609 5612 5615 5618 5622 5624 5627 5629 5632 5634 5637 5639 5643 5645 5648 5650 5653 5656 5659 5662 5665 5668 5672 5675
5588 5577 5570 5569 5564 5558 5556 5554 5550 5549 5552 5550 5546 5543 5542 5539 5536 5533 5531 5529 5528 5530 5532 5534 5535 5535 5535 5536 5537 5539 5542 5545 5548 5550 5552 5555 5557 5559 5562 5564 5564 5566 5568 5569 5570 5571 5572 5573 5574 5576 5579 5580 5581 5583 5585 5587 5589 5592 5594 5596 5598 5600 5603 5606 5608 5611 5613 5616 5619 5621 5624 5626 5628 5631 5634 5637 5640 5642 5645 5647 5651 5654 5657 5660 5663 5667
5578 5568 5558 5555 5555 5552 5549 5548 5547 5546 5546 5544 5540 5537 5535 5533 5530 5527 5524 5522 5522 5523 5524 5525 5526 5526 5526 5528 5531 5533 5534 5536 5539 5542 5545 5548 5550 5553 5555 5557 5558 5560 5561 5562 5564 5566 5567 5568 5568 5570 5571 5573 5575 5577 5579 5581 5583 5585 5588 5589 5591 5593 5596 5598 5601 5604 5606 5608 5611 5613 5616 5618 5620 5623 5626 5628 5632 5635 5637 5640 5643 5646 5649 5652 5655 5659
5567 5562 5551 5545 5548 5547 5542 5541 5542 5541 5540 5539 5536 5532 5529 5528 5526 5523 5519 5516 5516 5516 5516 5516 5517 5517 5517 5519 5523 5526 5528 5529 5530 5533 5536 5540 5543 5545 5548 5550 5552 5553 5555 5556 5557 5558 5560 5561 5563 5564 5565 5567 5568 5570 5573 5575 5577 5579 5581 5582 5584 5586 5589 5591 5595 5598 5600 5602 5604 5605 5608 5611 5613 5615 5618 5620 5624 5627 5630 5632 5635 5638 5641 5644 5647 5650
5558 5555 5548 5543 5544 5544 5540 5538 5539 5537 5535 5534 5532 5529 5526 5524 5522 5520 5516 5512 5511 5510 5510 5509 5509 5509 5509 5510 5513 5517 5520 5522 5523 5524 5527 5531 5534 5537 5540 5542 5544 5546 5548 5549 5549 5551 5553 5555 5556 5558 5559 5560 5562 5564 5567 5570 5572 5574 5575 5577 5578 5580 5583 5585 5588 5591 5594 5597 5599 5600 5601 5604 5606 5609 5611 5613 5616 5619 5622 5625 5627 5629 5632 5636 5639 5642
5554 5551 5548 5544 5543 5541 5539 5538 5536 5533 5531 5529 5528 5526 5524 5521 5519 5516 5512 5509 5507 5505 5504 5504 5503 5503 5502 5502 5504 5506 5509 5512 5515 5518 5519 5522 5525 5528 5531 5534 5537 5539 5541 5542 5543 5545 5547 5549 5550 5551 5553 5554 5556 5558 5561 5564 5567 5569 5570 5572 5573 5575 5577 5580 5581 5583 5586 5589 5592 5595 5596 5598 5600 5602 5604 5607 5609 5612 5615 5617 5619 5622 5624 5627 5631 5634
5554 5551 5548 5545 5543 5540 5537 5537 5534 5530 5528 5526 5524 5523 5521 5518 5515 5512 5509 5506 5503 5501 5499 5499 5498 5497 5497 5496 5496 5498 5500 5502 5506 5510 5512 5514 5517 5520 5523 5527 5529 5531 5534 5536 5537 5539 5541 5542 5544 5546 5547 5549 5551 5553 5556 5558 5561 5563 5565 5567 5568 5569 5571 5574 5575 5577 5578 5581 5584 5587 5590 5592 5593 5595 5597 5600 5602 5604 5607 5609 5611 5614 5617 5619 5622 5626
5554 5551 5547 5545 5543 5540 5537 5535 5531 5528 5527 5524 5522 5520 5517 5514 5511 5508 5505 5502 5500 5497 5495 5494 5492 5491 5491 5491 5491 5491 5492 5495 5498 5502 5505 5508 5510 5513 5516 5518 5521 5524 5526 5528 5530 5531 5533 5535 5538 5540 5542 5545 5546 5548 5551 5553 5555 5557 5559 5561 5562 5563 5565 5568 5569 5571 5573 5574 5576 5578 5581 5584 5587 5588 5590 5592 5594 5597 5599 5601 5603 5606 5609 5612 5614 5617
5552 5550 5546 5543 5540 5539 5537 5533 5529 5526 5524 5523 5520 5517 5514 5511 5507 5504 5502 5499 5496 5494 5492 5490 5489 5487 5486 5486 5486 5486 5487 5489 5491 5494 5498 5502 5504 5507 5509 5511 5513 5516 5518 5520 5522 5524 5526 5529 5531 5534 5536 5539 5540 5542 5545 5547 5549 5551 5553 5555 5556 5558 5559 5561 5563 5565 5567 5568 5570 5571 5573 5575 5578 5581 5583 5586 5587 5589 5592 5594 5596 5598 5601 5603 5606 5609
5551 5548 5545 5540 5537 5535 5534 5531 5526 5523 5521 5520 5517 5514 5511 5507 5503 5501 5498 5495 5493 5491 5489 5486 5485 5484 5483 5482 5481 5480 5481 5483 5485 5487 5490 5495 5498 5500 5502 5504 5507 5509 5512 5514 5516 5519 5522 5525 5527 5529 5531 5533 5534 5536 5539 5542 5544 5546 5547 5548 5550 5551 5553 5554 5556 5558 5561 5562 5563 5565 5566 5567 5570 5572 5575 5578 5580 5581 5583 5586 5588 5590 5593 5595 5597 5600